Weather History for Coffeyville, KS

Change the Weather History Date:

Wednesday, June 5, 2013

  Actual Average Record
Temperature  
Mean Temperature 72 °F -  
Max Temperature 80 °F 79 °F 95 °F (2011)
Min Temperature 66 °F 60 °F 51 °F (1997)
Cooling Degree Days 8    
Growing Degree Days 22 (Base 50)    
Moisture  
Dew Point 66 °F    
Average Humidity 88    
Maximum Humidity 100    
Minimum Humidity 64    
Precipitation  
Precipitation 1.11 in - - ()
Sea Level Pressure  
Sea Level Pressure 29.91 in    
Wind  
Wind Speed 6 mph (NE)    
Max Wind Speed 13 mph    
Max Gust Speed 18 mph    
Visibility 7 miles    
Events Rain , Thunderstorm    
Averages and records for this station are not official NWS values.
T = Trace of Precipitation, MM = Missing Value Source: NWS Daily Summary

Daily Weather History Graph

Daily Weather History Graph

Search for Another Location

Airport:

Trip Planner

Search our weather history database for the weather conditions in past years. The results will help you decide how hot, cold, wet, or windy it might be!

Date:

Astronomy

Jun. 05, 2013 Rise Set
Actual Time 6:02 AM CDT 8:39 PM CDT
Civil Twilight 5:32 AM CDT 9:09 PM CDT
Nautical Twilight 4:54 AM CDT 9:47 PM CDT
Astronomical Twilight 4:11 AM CDT 10:30 PM CDT
Moon 4:04 AM CDT (6/5) 6:09 PM CDT (6/5)
Length of Visible Light 15h 37m
Length of Day
14h 36m
Waning Crescent, 8% of the Moon is Illuminated
Jun 5
Waning Crescent
Jun 8
New
Jun 16
First Quarter
Jun 23
Full
Jun 29
Last Quarter

Hourly Weather History & Observations

Time (CDT) Temp. Dew Point Humidity Pressure Visibility Wind Dir Wind Speed Gust Speed Precip Events Conditions
12:52 AM 72.0 °F 68.0 °F 87% 29.92 in 10.0 mi ESE 3.5 mph - N/A   Overcast
1:52 AM 72.0 °F 66.9 °F 84% 29.91 in 10.0 mi SE 4.6 mph - N/A   Overcast
2:52 AM 70.0 °F 66.0 °F 87% 29.90 in 10.0 mi Calm Calm - N/A   Mostly Cloudy
3:52 AM 70.0 °F 66.0 °F 87% 29.88 in 10.0 mi East 3.5 mph - N/A   Overcast
4:52 AM 69.1 °F 64.9 °F 87% 29.86 in 10.0 mi East 3.5 mph - N/A   Mostly Cloudy
5:11 AM 68.0 °F 66.2 °F 94% 29.87 in 2.5 mi NE 4.6 mph - 0.12 in Rain , Thunderstorm Heavy Thunderstorms and Rain
5:25 AM 68.0 °F 64.4 °F 88% 29.86 in 3.0 mi East 9.2 mph - 0.23 in Rain Light Rain
5:35 AM 68.0 °F 66.2 °F 94% 29.85 in 10.0 mi ENE 6.9 mph - 0.24 in Rain , Thunderstorm Light Rain
5:52 AM 68.0 °F 66.0 °F 93% 29.86 in 9.0 mi East 4.6 mph - 0.24 in Rain , Thunderstorm Light Thunderstorms and Rain
6:04 AM 68.0 °F 66.2 °F 94% 29.92 in 1.8 mi SW 12.7 mph 18.4 mph 0.20 in Rain , Thunderstorm Heavy Thunderstorms and Rain
6:11 AM 68.0 °F 66.2 °F 94% 29.90 in 1.0 mi SW 8.1 mph 18.4 mph 0.44 in Rain , Thunderstorm Heavy Thunderstorms and Rain
6:15 AM 66.2 °F 66.2 °F 100% 29.92 in 1.0 mi South 5.8 mph - 0.56 in Rain , Thunderstorm Heavy Thunderstorms and Rain
6:23 AM 66.2 °F 66.2 °F 100% 29.93 in 1.2 mi North 4.6 mph - 0.65 in Rain , Thunderstorm Heavy Thunderstorms and Rain
6:27 AM 66.2 °F 66.2 °F 100% 29.92 in 1.8 mi NE 5.8 mph - 0.67 in Rain , Thunderstorm Heavy Thunderstorms and Rain
6:32 AM 66.2 °F 66.2 °F 100% 29.91 in 3.0 mi NNE 6.9 mph - 0.68 in Rain , Thunderstorm Thunderstorms and Rain
6:41 AM 66.2 °F 66.2 °F 100% 29.91 in 4.0 mi ENE 5.8 mph - 0.69 in Rain , Thunderstorm Light Rain
6:47 AM 66.2 °F 66.2 °F 100% 29.91 in 4.0 mi East 5.8 mph - 0.71 in Rain , Thunderstorm Rain
6:52 AM 66.9 °F 66.9 °F 100% 29.89 in 3.0 mi ENE 5.8 mph - 0.72 in Rain , Thunderstorm Rain
7:22 AM 66.2 °F 66.2 °F 100% 29.91 in 3.0 mi ESE 6.9 mph - 0.09 in Rain Rain
7:39 AM 66.2 °F 66.2 °F 100% 29.91 in 4.0 mi SE 9.2 mph - 0.11 in Rain Light Rain
7:50 AM 66.2 °F 66.2 °F 100% 29.90 in 5.0 mi SE 6.9 mph - 0.11 in Rain Light Rain
7:52 AM 66.9 °F 66.9 °F 100% 29.89 in 5.0 mi SE 5.8 mph - 0.11 in Rain Light Rain
8:09 AM 66.2 °F 66.2 °F 100% 29.90 in 5.0 mi SE 5.8 mph - 0.01 in Rain Light Rain
8:44 AM 66.2 °F 66.2 °F 100% 29.92 in 7.0 mi South 3.5 mph - 0.03 in Rain Light Rain
8:52 AM 66.9 °F 66.9 °F 100% 29.91 in 8.0 mi South 3.5 mph - 0.04 in Rain Light Rain
9:52 AM 66.9 °F 64.9 °F 93% 29.94 in 10.0 mi SW 8.1 mph - 0.00 in   Overcast
10:52 AM 68.0 °F 66.0 °F 93% 29.88 in 10.0 mi West 3.5 mph - N/A   Overcast
11:52 AM 71.1 °F 66.9 °F 87% 29.89 in 10.0 mi South 5.8 mph - N/A   Overcast
12:49 PM 73.4 °F 68.0 °F 83% 29.92 in 10.0 mi Variable 4.6 mph - N/A   Overcast
12:52 PM 73.9 °F 68.0 °F 82% 29.91 in 10.0 mi WSW 5.8 mph - N/A   Mostly Cloudy
1:00 PM 73.4 °F 68.0 °F 83% 29.91 in 10.0 mi WSW 5.8 mph - N/A   Mostly Cloudy
1:34 PM 77.0 °F 69.8 °F 78% 29.90 in 10.0 mi WNW 6.9 mph - N/A   Mostly Cloudy
1:52 PM 75.9 °F 66.0 °F 71% 29.88 in 10.0 mi WNW 9.2 mph - N/A   Mostly Cloudy
2:08 PM 78.8 °F 66.2 °F 65% 29.90 in 10.0 mi WNW 10.4 mph - N/A   Scattered Clouds
2:52 PM 77.0 °F 66.0 °F 69% 29.88 in 10.0 mi WNW 11.5 mph - N/A   Mostly Cloudy
3:52 PM 79.0 °F 66.9 °F 66% 29.89 in 10.0 mi North 10.4 mph - N/A   Mostly Cloudy
4:52 PM 79.0 °F 66.9 °F 66% 29.88 in 10.0 mi NNW 6.9 mph - N/A   Partly Cloudy
5:52 PM 79.0 °F 66.0 °F 64% 29.88 in 10.0 mi North 9.2 mph - N/A   Scattered Clouds
6:52 PM 75.0 °F 64.9 °F 71% 29.90 in 10.0 mi NNW 11.5 mph - N/A   Overcast
8:52 PM 69.1 °F 64.9 °F 87% 29.92 in 8.0 mi North 9.2 mph - N/A   Clear
9:25 PM 69.8 °F 64.4 °F 83% 29.95 in 10.0 mi North 6.9 mph - N/A   Mostly Cloudy
9:52 PM 68.0 °F 64.0 °F 87% 29.95 in 10.0 mi North 9.2 mph - N/A   Scattered Clouds
10:52 PM 66.0 °F 63.0 °F 90% 29.96 in 10.0 mi North 3.5 mph - N/A   Clear
11:30 PM 66.2 °F 62.6 °F 88% 29.97 in 10.0 mi North 5.8 mph - N/A   Mostly Cloudy
11:43 PM 66.2 °F 62.6 °F 88% 29.97 in 10.0 mi North 5.8 mph - N/A   Overcast
11:52 PM 66.0 °F 62.1 °F 87% 29.96 in 10.0 mi North 6.9 mph - N/A   Overcast